Regional Weather Roundup
Issued by NWS Lake Charles, LA

Home | Current Version | Previous Version | Text Only | Print | Product List | Glossary On
Versions: 1 2 3 4 5 6 7 8 9 10 11 12 13 14 15 16 17 18 19 20 21 22 23 24 25 26 27 28 29 30 31 32 33 34 35 36 37 38 39 40 41 42 43 44 45 46 47 48 49 50
978
ASUS44 KLCH 251210
RWRLCH
REGIONAL WEATHER ROUNDUP
NATIONAL WEATHER SERVICE LAKE CHARLES LA
700 AM CDT MON JUL 25 2016

Note: "fair" indicates few or no clouds below 12,000 feet with no
significant weather and/or obstructions to visibility.


ACROSS SOUTHEAST TEXAS

CITY           SKY/WX    TMP DP  RH WIND       PRES   REMARKS
BEAUMONT       PTCLDY    79  77  94 N6        29.95R
BEAUMONT CITY  FAIR      78  76  93 CALM      29.97R
ORANGE         SUNNY     76  74  93 CALM      29.98R FOG
JASPER         PTCLDY    73  72  95 CALM      30.00R
$$

ACROSS CENTRAL LOUISIANA

CITY           SKY/WX    TMP DP  RH WIND       PRES   REMARKS
LEESVILLE      CLOUDY    76  74  95 NE3       29.98R
FULLERTON      FAIR      76  74  93 CALM      29.96S FOG
ALEXANDRIA INT CLOUDY    75  74  96 E3        29.98R
ESLER FIELD    CLOUDY    75  75 100 CALM      30.00R FOG
DERIDDER       NOT AVBL
OAKDALE        CLOUDY    75  74  97 CALM      29.98R FOG
OPELOUSAS      PTSUNNY   76  76  99 CALM      29.98R
$$

ACROSS SOUTHWEST AND SOUTH CENTRAL LOUISIANA

CITY           SKY/WX    TMP DP  RH WIND       PRES   REMARKS
SULPHUR        SUNNY     78  77  96 CALM      29.97R
LAKE CHARLES   MOCLDY    78  75  90 N3        29.96R
CHENNAULT INT  NOT AVBL
CAMERON PHI    NOT AVBL
DEQUINCY       FAIR      74  73  97 CALM      29.98R
JENNINGS       FAIR      77  75  94 MISG      29.97R
LAFAYETTE      MOCLDY    78  76  93 N5        29.96S
NEW IBERIA     LGT RAIN  80  77  90 N3        29.97R
ABBEVILLE      FAIR      77  77 100 CALM      29.97R
PATTERSON      CLOUDY    78  77  96 CALM      29.98R THUNDER
SALT POINT       N/A     79  77  94 CALM      29.95R
$$

SELECTED SITES ACROSS THE REGION

CITY           SKY/WX    TMP DP  RH WIND       PRES   REMARKS
HOUSTON BUSH   CLOUDY    80  76  87 CALM      29.96R
HOUSTON HOBBY  MOCLDY    82  76  81 NW3       29.95R
GALVESTON      CLEAR     83  78  85 W7        29.95R
COLLEGE STAT   CLOUDY    80  76  87 S3        29.98R
CONROE         CLOUDY    77  75  93 CALM      29.97R
HUNTSVILLE     PTCLDY    78  75  90 CALM      29.98R
LUFKIN         CLOUDY    75  74  96 N3        29.98R
SHREVEPORT     CLOUDY    76  75  97 S3        29.99R
MONROE         CLEAR     74  74 100 E3        30.01R
NATCHEZ MS     CLEAR     73  70  88 CALM      30.00S
BATON ROUGE    CLEAR     76  73  91 NE5       29.98R
N.O. INTL ARPT PTCLDY    81  76  84 CALM      29.97R
SLIDELL        PTCLDY    76  75  97 N5        29.97R
$$

MARINE REPORTS

STATION/POSITION TIME  SKY/WX   TEMP    WIND        PRES    VSBY
                                AIR SEA DIR/SP/G
                 (UTC)          (F)     (DEG/KT/KT) (MB)    (MI)
BUOY 30 S HIGH I 1150            86 88  260/  8/  8 1013.8R
WVE H/P(F/S)=  2/ 5

SEA RIM ST PARK  1200            78     360/  4/  5 1014.8S
PORT ARTHUR      1100               89  330/  2/  4 1014.0R
SABINE PASS N    1100            83 90  310/  4/  6 1015.1R
TEXAS POINT      NOT AVBL
CALCASIEU PASS   1100            83 90  360/  4/  5 1013.1R
LK CHARLES BEACH 1100            77 89              1014.6R
MARSH ISLAND     1100            83                   N/A
FRESH WATER LOCK 1100            81 89   50/  3/  3 1014.4S
AMERADA PASS     1100            79 86   70/  2/  2 1013.8R
$$




USA.gov is the U.S. government's official web portal to all federal, state and local government web resources and services.